Погода в Сергиеве

Россия / Республика Карелия     62°54′09″N   36°01′05″E
темп.,
°C
ветер,
м/с
пор.,
м/с
влажн.,
%
обл.,
%
осадки,
мм/ч
давл.,
гПа
погр.,
м
26 февраля, пт
пт2600:00−8ю4795100 2.6 1003261
03:00−4ю2598100 2.8 1002213
06:00−4ююв2699100 0.1 999224
09:00−4вюв3697100 0.1 996236
12:00−4в2496100 0.1 996251
15:00−4св2396100 0.1 997233
18:00−6вюв229696 0.1 99937
21:00−8юв129796 0.2 100127
27 февраля, сб
сб2700:00−8ю129792 0.3 100221
03:00−7ююз119789 0.4 100537
06:00−4зюз1198100 0.3 100624
09:00−4с269794 0.6 1009229
12:00−3с379590 0.3 1010413
15:00−2с499393 0.5 1013596
18:00−3ссз499385 0.1 1014647
21:00−4ссз399492 0.1 1015505
28 февраля, вс
вс2800:00−8сз239895 0.1 101555
03:00−10зсз229890 0.1 101622
06:00−11з129978 0.0 101521
09:00−10юз129787 0.0 101624
12:00−6юз249697 0.0 1015229
15:00−5юз359699 0.0 1015253
18:00−5ююз3697100 0.1 1014254
21:00−4юз3697100 1.6 1015244
1 марта, пн
пн100:00−2зюз2498100 0.1 1016187
03:00−3зюз239894 0.1 101669
06:00−5зюз369865 0.0 1015146
09:00−3зюз599772 0.0 1013415
12:00+1зюз512100100 0.0 1012644
15:00+1з51396100 0.1 1010714
18:00+1з51398100 0.1 1009755
21:00+1з5138993 0.1 1008806
2 марта, вт
вт200:00+1зсз51289100 0.1 1008881
03:00−3з4148865 0.1 1008569
06:00−3зсз514882 0.0 1007671
09:00−2зсз6148721 0.0 1008802
12:00−1сз6138682 0.0 10101021
15:000сз6138491 0.0 10111116
18:00−1сз5138779 0.0 1012884
21:00−2сз4139084 0.0 1013696